FW3814 Weather Reports


time (UTC)temp
F
wind
direction
speed
knots
gust
knots
rain 1hr
in
rain 24hr
in
rain mn
in
humidity
%
barometer
mb
20260510100005 57 352 0.9 1.7 0.05 0.22 0.22 88 1013.1
20260510095505 57 21 0.0 0.9 0.05 0.22 0.22 88 1013.1
20260510095005 57 360 0.0 0.9 0.05 0.21 0.21 88 1013.1
20260510094505 57 8 0.0 0.9 0.06 0.21 0.21 88 1013.2
20260510094005 57 9 0.0 1.7 0.07 0.21 0.21 87 1013.2
20260510093505 57 9 0.9 1.7 0.08 0.21 0.21 87 1013.3
20260510093005 57 9 0.0 1.7 0.07 0.20 0.20 87 1013.2
20260510092505 57 0 0.0 0.0 0.08 0.20 0.20 87 1013.2
20260510092005 56 0 0.0 0.0 0.09 0.20 0.20 87 1013.2
20260510091505 56 0 0.0 0.0 0.09 0.19 0.19 87 1013.1
20260510091005 56 0 0.0 0.0 0.09 0.19 0.19 87 1013.2
20260510090505 56 0 0.0 0.0 0.11 0.18 0.18 86 1013.2
20260510090005 56 0 0.0 0.0 0.11 0.18 0.18 86 1013.2
20260510085526 56 0 0.0 0.0 0.12 0.18 0.18 86 1013.2
20260510085005 56 0 0.0 0.0 0.12 0.17 0.17 86 1013.2
20260510084505 56 0 0.0 0.0 0.11 0.15 0.15 86 1013.2
20260510084005 56 0 0.0 0.0 0.11 0.14 0.14 86 1013.2
20260510083526 56 0 0.0 0.0 0.09 0.13 0.13 86 1013.1
20260510083005 56 0 0.0 0.0 0.09 0.13 0.13 86 1013.2
20260510082505 56 0 0.0 0.0 0.08 0.12 0.12 86 1013.2
20260510082005 56 0 0.0 0.0 0.07 0.11 0.11 86 1013.2
20260510081505 56 0 0.0 0.0 0.06 0.09 0.09 86 1013.2
20260510081005 56 0 0.0 0.0 0.06 0.09 0.09 86 1013.2
20260510080505 56 0 0.0 0.0 0.04 0.07 0.07 86 1013.2
20260510080005 56 0 0.0 0.0 0.04 0.07 0.07 86 1013.2
20260510075505 56 0 0.0 0.0 0.02 0.06 0.06 86 1013.1
20260510075005 56 0 0.0 0.0 0.01 0.05 0.05 86 1012.9
20260510074505 56 0 0.0 0.0 0.01 0.05 0.05 85 1013.0
20260510074026 56 0 0.0 0.0 0.00 0.04 0.04 85 1012.9
20260510073505 56 0 0.0 0.0 0.00 0.04 0.04 85 1012.9
20260510073005 55 345 0.9 1.7 0.00 0.04 0.04 85 1012.9
20260510072526 55 355 0.9 3.5 0.00 0.04 0.04 85 1012.7
20260510072005 55 2 0.9 3.5 0.00 0.04 0.04 85 1012.9
20260510071526 55 9 0.9 4.3 0.00 0.04 0.04 85 1012.7
20260510071005 55 3 2.6 4.3 0.00 0.04 0.04 84 1012.8
20260510070505 55 353 3.5 5.2 0.00 0.04 0.04 84 1012.5
20260510070026 55 358 3.5 5.2 0.00 0.04 0.04 84 1012.7
20260510065505 55 11 2.6 3.5 0.00 0.04 0.04 84 1012.5
20260510065005 55 359 1.7 3.5 0.00 0.04 0.04 83 1012.8
20260510064505 55 358 2.6 3.5 0.00 0.04 0.04 83 1012.7
20260510064005 55 358 3.5 6.1 0.00 0.04 0.04 83 1012.7
20260510063505 55 2 3.5 6.1 0.00 0.04 0.04 83 1012.7
20260510063026 55 10 3.5 4.3 0.00 0.04 0.04 82 1012.7
20260510062505 55 6 4.3 4.3 0.00 0.04 0.04 82 1012.5
20260510062005 55 2 3.5 4.3 0.00 0.04 0.04 82 1012.5
20260510061526 55 353 2.6 3.5 0.01 0.04 0.04 81 1012.7
20260510061005 56 349 1.7 3.5 0.01 0.04 0.04 81 1012.7
20260510060505 56 356 3.5 8.7 0.01 0.04 0.04 81 1012.5
20260510060006 56 355 2.6 8.7 0.01 0.04 0.04 81 1012.5
20260510055505 56 333 0.9 3.5 0.01 0.04 0.04 80 1012.5
20260510055005 56 286 2.6 5.2 0.01 0.04 0.04 80 1012.4
20260510054505 56 263 1.7 5.2 0.01 0.04 0.04 80 1012.2
20260510054005 56 299 0.9 1.7 0.01 0.04 0.04 80 1012.5
20260510053526 56 321 0.9 1.7 0.01 0.04 0.04 79 1012.2
20260510053026 56 316 0.9 1.7 0.01 0.04 0.04 79 1012.0
20260510052526 56 304 0.9 1.7 0.01 0.04 0.04 78 1012.0
20260510052041 56 315 0.0 0.9 0.01 0.04 0.04 78 1012.1
20260510051505 57 283 0.9 1.7 0.00 0.02 0.02 78 1011.8
20260510051005 57 267 0.0 1.7 0.00 0.02 0.02 77 1011.8
20260510050505 57 101 0.9 2.6 0.00 0.02 0.02 78 1011.9
20260510050005 57 101 0.9 2.6 0.00 0.02 0.02 78 1011.5
20260510045526 57 88 0.0 2.6 0.00 0.02 0.02 77 1011.7
20260510045005 57 58 0.9 1.7 0.00 0.02 0.02 78 1011.5
20260510044526 57 26 0.9 1.7 0.00 0.02 0.02 78 1011.5
20260510044005 57 4 1.7 3.5 0.00 0.02 0.02 78 1011.4
20260510043505 57 9 3.5 6.1 0.00 0.02 0.02 78 1011.5
20260510043005 57 16 5.2 7.0 0.00 0.02 0.02 78 1011.4
20260510042526 57 20 5.2 7.0 0.00 0.02 0.02 79 1011.6
20260510042005 57 25 5.2 7.0 0.00 0.02 0.02 79 1011.5
20260510041505 57 27 6.1 8.7 0.00 0.02 0.02 79 1011.6
20260510041026 56 49 6.1 8.7 0.00 0.02 0.02 79 1011.6
20260510040505 56 55 6.1 7.0 0.00 0.02 0.02 78 1011.6
20260510040005 56 23 4.3 7.0 0.00 0.02 0.02 78 1011.5
20260510035526 56 12 3.5 5.2 0.00 0.02 0.02 78 1011.6
20260510035005 56 9 3.5 4.3 0.00 0.02 0.02 77 1011.5
20260510034505 57 3 3.5 4.3 0.00 0.02 0.02 76 1011.7
20260510034026 57 22 3.5 4.3 0.00 0.02 0.02 76 1011.7
20260510033505 57 41 5.2 7.0 0.00 0.02 0.02 75 1011.8
20260510033005 57 45 6.1 7.0 0.00 0.02 0.02 75 1011.7
20260510032505 58 51 6.1 7.0 0.00 0.02 0.02 75 1011.8
20260510032005 58 49 5.2 6.1 0.00 0.02 0.02 75 1011.7
20260510031505 58 47 4.3 4.3 0.00 0.02 0.02 75 1011.8
20260510031005 58 47 2.6 4.3 0.00 0.02 0.02 76 1011.8
20260510030505 57 42 1.7 3.5 0.00 0.02 0.02 76 1011.9
20260510030005 57 6 1.7 3.5 0.00 0.02 0.02 76 1011.9
20260510025505 58 7 3.5 4.3 0.00 0.02 0.02 76 1012.0
20260510025005 57 12 3.5 4.3 0.00 0.02 0.02 76 1012.1
20260510024505 57 15 4.3 4.3 0.00 0.02 0.02 76 1012.0
20260510024020 57 12 3.5 4.3 0.00 0.02 0.02 76 1012.0
20260510023505 57 8 2.6 3.5 0.00 0.02 0.02 76 1012.2
20260510023005 56 10 3.5 5.2 0.00 0.02 0.02 76 1012.4
20260510022505 56 13 3.5 5.2 0.00 0.02 0.02 76 1012.4
20260510022005 56 12 2.6 3.5 0.00 0.02 0.02 76 1012.5
20260510021505 56 9 2.6 3.5 0.00 0.02 0.02 75 1012.5
20260510021005 56 4 2.6 3.5 0.01 0.02 0.02 75 1012.7
20260510020505 56 2 1.7 2.6 0.01 0.02 0.02 73 1012.7
20260510020005 56 4 0.9 2.6 0.01 0.02 0.02 73 1012.8
20260510015505 57 356 0.9 2.6 0.02 0.02 0.02 72 1012.7
20260510015026 57 355 0.0 0.9 0.02 0.02 0.02 71 1012.9
20260510014505 57 22 0.0 0.9 0.02 0.02 0.02 70 1013.0
20260510014005 57 32 1.7 6.1 0.02 0.02 0.02 70 1013.2
20260510013505 58 43 4.3 7.0 0.02 0.02 0.02 70 1012.9
20260510013005 58 60 5.2 7.0 0.02 0.02 0.02 70 1012.9
20260510012505 58 64 4.3 7.0 0.02 0.02 0.02 69 1013.1
20260510012005 58 61 1.7 5.2 0.02 0.02 0.02 67 1012.9
20260510011505 58 137 1.7 4.3 0.02 0.02 0.02 66 1013.0
20260510011005 59 195 4.3 7.0 0.01 0.01 0.01 66 1013.1
20260510010505 59 237 4.3 7.0 0.01 0.01 0.01 64 1013.2
20260510010026 59 231 1.7 4.3 0.01 0.01 0.01 64 1013.2
20260510005505 59 10 0.9 2.6 0.00 0.00 0.00 64 1013.0
20260510005026 59 14 1.7 3.5 0.00 0.00 0.00 64 1013.0
20260510004505 59 18 2.6 3.5 0.00 0.00 0.00 64 1012.9
20260510004005 60 18 2.6 3.5 0.00 0.00 0.00 63 1012.8
20260510003505 60 18 2.6 3.5 0.00 0.00 0.00 63 1012.8
20260510003005 60 21 1.7 3.5 0.00 0.00 0.00 63 1012.9
20260510002505 60 16 1.7 3.5 0.00 0.00 0.00 63 1012.9
20260510002005 60 16 1.7 3.5 0.00 0.00 0.00 63 1013.0
20260510001505 60 25 1.7 3.5 0.00 0.00 0.00 63 1013.1
20260510001026 59 26 1.7 3.5 0.00 0.00 0.00 63 1013.3
20260510000505 59 0 0.0 0.0 0.00 0.00 0.00 63 1013.2
20260510000005 59 0 0.0 0.0 0.00 0.00 0.00 63 1013.3
20260509235505 59 22 0.0 1.7 0.00 0.00 0.00 63 1013.5
20260509235026 59 22 0.9 1.7 0.00 0.00 0.00 63 1013.5
20260509234505 59 14 1.7 1.7 0.00 0.00 0.00 63 1013.4
20260509234005 60 12 2.6 3.5 0.00 0.00 0.00 63 1013.3
20260509233505 60 13 3.5 3.5 0.00 0.00 0.00 63 1013.4
20260509233005 60 10 3.5 3.5 0.00 0.00 0.00 63 1013.2
20260509232505 60 9 2.6 3.5 0.00 0.00 0.00 62 1013.4
20260509232026 60 8 2.6 3.5 0.00 0.00 0.00 62 1013.5
20260509231506 60 15 2.6 3.5 0.00 0.00 0.00 62 1013.4
20260509230504 60 9 2.6 3.5 0.00 0.00 0.00 61 1013.6
20260509230004 61 9 3.5 3.5 0.00 0.00 0.00 61 1013.4
20260509225504 61 11 3.5 3.5 0.00 0.00 0.00 60 1013.4
20260509225004 61 13 2.6 3.5 0.00 0.00 0.00 60 1013.5
20260509224504 61 17 1.7 3.5 0.00 0.00 0.00 60 1013.4
20260509224004 61 19 0.9 2.6 0.00 0.00 0.00 60 1013.5
20260509223525 61 18 0.0 1.7 0.00 0.00 0.00 60 1013.7
20260509223004 61 0 0.0 0.0 0.00 0.00 0.00 60 1013.6
20260509222504 61 7 0.0 1.7 0.00 0.00 0.00 60 1013.7
20260509222004 61 7 0.0 1.7 0.00 0.00 0.00 60 1013.6
20260509221525 61 0 0.0 0.0 0.00 0.00 0.00 60 1013.7
20260509221004 61 0 0.0 0.0 0.00 0.00 0.00 60 1013.6
20260509220525 61 0 0.0 0.0 0.00 0.00 0.00 59 1013.6
20260509220004 61 0 0.0 0.0 0.00 0.00 0.00 59 1013.5
20260509215504 62 0 0.0 0.0 0.00 0.00 0.00 58 1013.5
20260509215004 62 0 0.0 0.0 0.00 0.00 0.00 57 1013.5
20260509214525 62 0 0.0 0.0 0.00 0.00 0.00 56 1013.4
20260509214004 62 10 0.0 1.7 0.00 0.00 0.00 55 1013.5
20260509213504 62 8 0.9 1.7 0.00 0.00 0.00 54 1013.6
20260509213004 62 8 0.0 1.7 0.00 0.00 0.00 53 1013.5
20260509212504 63 0 0.0 0.0 0.00 0.00 0.00 53 1013.6
20260509212025 63 0 0.0 0.0 0.00 0.00 0.00 53 1013.3
20260509211504 63 0 0.0 0.0 0.00 0.00 0.00 52 1013.5
20260509211032 63 0 0.0 0.0 0.00 0.00 0.00 52 1013.3
20260509210504 63 0 0.0 0.0 0.00 0.00 0.00 52 1013.4
20260509210025 63 0 0.0 0.0 0.00 0.00 0.00 52 1013.6
20260509205504 63 0 0.0 0.0 0.00 0.00 0.00 52 1013.5
20260509205025 63 0 0.0 0.0 0.00 0.00 0.00 52 1013.5
20260509204525 64 0 0.0 0.0 0.00 0.00 0.00 50 1013.5
20260509204004 64 0 0.0 0.0 0.00 0.00 0.00 50 1013.5
20260509203525 64 0 0.0 0.0 0.00 0.00 0.00 50 1013.5
20260509203025 64 0 0.0 0.0 0.00 0.00 0.00 49 1013.5
20260509202504 64 0 0.0 0.0 0.00 0.00 0.00 49 1013.3
20260509202004 64 0 0.0 0.0 0.00 0.00 0.00 49 1013.5
20260509201525 64 0 0.0 0.0 0.00 0.00 0.00 49 1013.5
20260509201004 64 0 0.0 0.0 0.00 0.00 0.00 49 1013.5
20260509200525 64 0 0.0 0.0 0.00 0.00 0.00 48 1013.5
20260509200004 64 0 0.0 0.0 0.00 0.00 0.00 48 1013.4
20260509195504 65 0 0.0 0.0 0.00 0.00 0.00 47 1013.2
20260509195004 65 0 0.0 0.0 0.00 0.00 0.00 47 1013.3
20260509194504 65 0 0.0 0.0 0.00 0.00 0.00 47 1012.9
20260509194019 66 0 0.0 0.0 0.00 0.00 0.00 47 1012.9
20260509193504 66 0 0.0 0.0 0.00 0.00 0.00 46 1013.0
20260509193004 66 0 0.0 0.0 0.00 0.00 0.00 46 1012.9
20260509192504 66 0 0.0 0.0 0.00 0.00 0.00 46 1012.8
20260509192004 66 0 0.0 0.0 0.00 0.00 0.00 45 1012.9
20260509191504 66 0 0.0 0.0 0.00 0.00 0.00 45 1012.8
20260509191004 66 0 0.0 0.0 0.00 0.00 0.00 45 1012.9
20260509190504 66 0 0.0 0.0 0.00 0.00 0.00 46 1012.8
20260509190004 66 0 0.0 0.0 0.00 0.00 0.00 46 1012.9
20260509185525 66 0 0.0 0.0 0.00 0.00 0.00 45 1013.0
20260509185004 67 0 0.0 0.0 0.00 0.00 0.00 46 1013.0
20260509184504 67 0 0.0 0.0 0.00 0.00 0.00 46 1012.9
20260509184004 67 202 0.0 1.7 0.00 0.00 0.00 47 1013.0
20260509183504 67 202 0.0 1.7 0.00 0.00 0.00 47 1012.9
20260509183004 67 0 0.0 0.0 0.00 0.00 0.00 47 1012.9
20260509182504 68 0 0.0 0.0 0.00 0.00 0.00 48 1012.8
20260509182025 68 0 0.0 0.0 0.00 0.00 0.00 47 1012.9
20260509181504 69 0 0.0 0.0 0.00 0.00 0.00 45 1012.8
20260509181004 70 0 0.0 0.0 0.00 0.00 0.00 44 1012.7
20260509180525 70 0 0.0 0.0 0.00 0.00 0.00 42 1012.9
20260509180004 71 0 0.0 0.0 0.00 0.00 0.00 41 1012.8
20260509175525 71 0 0.0 0.0 0.00 0.00 0.00 41 1012.8
20260509175004 71 0 0.0 0.0 0.00 0.00 0.00 41 1012.8
20260509174504 71 0 0.0 0.0 0.00 0.00 0.00 40 1012.7
20260509174004 71 0 0.0 0.0 0.00 0.00 0.00 40 1012.7
20260509173504 72 0 0.0 0.0 0.00 0.00 0.00 40 1012.8
20260509173004 72 0 0.0 0.0 0.00 0.00 0.00 40 1012.8
20260509172504 72 275 0.0 1.7 0.00 0.00 0.00 40 1012.8
20260509172004 72 268 0.0 1.7 0.00 0.00 0.00 40 1012.9
20260509171504 73 305 0.0 1.7 0.00 0.00 0.00 36 1012.7
20260509171025 73 315 0.0 1.7 0.00 0.00 0.00 35 1012.8
20260509170504 74 315 0.0 0.9 0.00 0.00 0.00 36 1012.9
20260509170004 74 332 0.0 0.9 0.00 0.00 0.00 36 1012.7
20260509165504 74 328 0.0 0.9 0.00 0.00 0.00 35 1012.9
20260509165025 74 295 0.0 0.9 0.00 0.00 0.00 35 1012.8
20260509164504 74 298 0.0 0.9 0.00 0.00 0.00 35 1012.9
20260509164004 74 302 1.7 3.5 0.00 0.00 0.00 35 1012.9
20260509163504 74 279 2.6 4.3 0.00 0.00 0.00 34 1012.9
20260509163025 74 276 2.6 4.3 0.00 0.00 0.00 35 1012.9
20260509162504 74 309 3.5 4.3 0.00 0.00 0.00 36 1012.9
20260509162004 74 304 4.3 7.0 0.00 0.00 0.00 35 1013.0
20260509161504 74 273 4.3 7.0 0.00 0.00 0.00 34 1013.0
20260509161025 75 247 3.5 5.2 0.00 0.00 0.00 34 1013.1
20260509160504 75 242 2.6 3.5 0.00 0.00 0.00 35 1013.1
20260509160004 75 280 3.5 6.1 0.00 0.00 0.00 35 1013.1
20260509155504 74 298 5.2 7.8 0.00 0.00 0.00 34 1013.1
20260509155004 74 279 6.1 7.8 0.00 0.00 0.00 35 1013.3
20260509154504 74 268 7.0 9.6 0.00 0.00 0.00 34 1013.3
20260509154025 74 261 6.1 9.6 0.00 0.00 0.00 34 1013.3
20260509153504 74 237 4.3 6.1 0.00 0.00 0.00 36 1013.4
20260509153025 74 216 4.3 7.0 0.00 0.00 0.00 36 1013.2
20260509152504 74 242 5.2 7.0 0.00 0.00 0.00 36 1013.2
20260509152004 74 282 5.2 7.0 0.00 0.00 0.00 37 1013.3
20260509151504 74 286 7.0 8.7 0.00 0.00 0.00 37 1013.2
20260509151004 74 261 6.1 8.7 0.00 0.01 0.00 37 1013.2
20260509150504 75 262 5.2 6.1 0.00 0.01 0.00 37 1013.2
20260509150004 75 258 4.3 7.8 0.00 0.02 0.00 37 1013.3
20260509145504 75 221 2.6 7.8 0.00 0.04 0.00 37 1013.2
20260509145025 74 179 3.5 6.1 0.00 0.05 0.00 38 1013.1
20260509144504 74 180 5.2 7.0 0.00 0.06 0.00 37 1013.3
20260509144004 74 201 5.2 7.0 0.00 0.07 0.00 37 1013.2
20260509143504 75 210 4.3 8.7 0.00 0.07 0.00 39 1013.1
20260509143004 75 236 5.2 8.7 0.00 0.08 0.00 39 1013.3
20260509142504 74 257 7.0 8.7 0.00 0.09 0.00 38 1013.2
20260509142004 75 238 5.2 8.7 0.00 0.09 0.00 39 1013.3
20260509141504 75 205 4.3 8.7 0.00 0.11 0.00 40 1013.4
20260509141004 74 157 5.2 7.0 0.00 0.13 0.00 40 1013.4
20260509140504 74 158 5.2 6.1 0.00 0.14 0.00 40 1013.4
20260509140005 74 198 6.1 10.4 0.00 0.20 0.00 40 1013.5
20260509135504 74 198 5.2 10.4 0.00 0.34 0.00 40 1013.5
20260509135004 74 258 4.3 8.7 0.00 0.37 0.00 40 1013.6
20260509134504 74 252 5.2 8.7 0.00 0.38 0.00 40 1013.7
20260509134004 74 209 6.1 10.4 0.00 0.38 0.00 40 1013.7
20260509133504 74 213 6.1 10.4 0.00 0.39 0.00 40 1013.9
20260509133004 74 200 3.5 7.8 0.00 0.39 0.00 40 1013.9
20260509132504 74 212 4.3 7.8 0.00 0.41 0.00 40 1013.9
20260509132004 74 268 3.5 7.8 0.00 0.41 0.00 40 1014.0
20260509131525 74 305 3.5 5.2 0.00 0.41 0.00 41 1014.1
20260509131004 74 265 3.5 5.2 0.00 0.41 0.00 41 1014.0
20260509130504 73 220 5.2 9.6 0.00 0.41 0.00 40 1013.9
20260509130004 73 221 7.0 9.6 0.00 0.41 0.00 40 1014.1
20260509125504 73 254 7.0 9.6 0.00 0.41 0.00 40 1014.2
20260509125004 74 263 6.1 9.6 0.00 0.41 0.00 41 1014.2
20260509124504 73 267 5.2 9.6 0.00 0.41 0.00 41 1014.1
20260509124004 73 294 3.5 7.0 0.00 0.41 0.00 41 1014.2
20260509123504 73 267 3.5 9.6 0.00 0.41 0.00 42 1014.1
20260509123004 73 268 6.1 9.6 0.00 0.41 0.00 41 1014.2
20260509122504 73 288 7.0 9.6 0.00 0.41 0.00 41 1014.1
20260509122004 73 270 6.1 9.6 0.00 0.41 0.00 41 1014.1
20260509121504 73 234 4.3 7.0 0.00 0.41 0.00 41 1014.3
20260509121025 73 197 4.3 7.0 0.00 0.41 0.00 41 1014.2
20260509120504 73 228 4.3 7.0 0.00 0.41 0.00 41 1014.3
20260509120025 73 240 3.5 7.0 0.00 0.41 0.00 41 1014.2
20260509115504 72 215 3.5 7.0 0.00 0.41 0.00 42 1014.4
20260509115004 72 186 4.3 7.0 0.00 0.41 0.00 44 1014.3
20260509114504 72 113 4.3 6.1 0.00 0.41 0.00 44 1014.4
20260509114025 72 123 4.3 6.1 0.00 0.41 0.00 44 1014.5
20260509113504 72 151 2.6 4.3 0.00 0.41 0.00 46 1014.5
20260509113004 72 215 2.6 4.3 0.00 0.41 0.00 48 1014.5
20260509112525 72 268 2.6 6.1 0.00 0.41 0.00 48 1014.6
20260509112004 72 279 2.6 6.1 0.00 0.41 0.00 47 1014.7
20260509111504 72 236 3.5 7.0 0.00 0.41 0.00 48 1014.7
20260509111004 72 216 5.2 7.0 0.00 0.41 0.00 49 1014.8
20260509110504 72 229 6.1 7.0 0.00 0.41 0.00 49 1014.9
20260509110025 72 287 6.1 7.0 0.00 0.41 0.00 49 1015.0
20260509105504 72 290 5.2 7.0 0.00 0.41 0.00 50 1015.0
20260509105004 72 264 4.3 7.0 0.00 0.41 0.00 50 1015.2
20260509104504 72 290 2.6 7.0 0.00 0.41 0.00 50 1015.3
20260509104004 71 305 3.5 6.1 0.00 0.41 0.00 50 1015.3
20260509103504 71 297 4.3 6.1 0.00 0.41 0.00 50 1015.3
20260509103004 71 298 3.5 6.1 0.00 0.41 0.00 51 1015.3
20260509102540 71 281 3.5 5.2 0.00 0.41 0.00 51 1015.5
20260509102004 71 263 4.3 6.1 0.00 0.41 0.00 51 1015.5
20260509101525 70 289 4.3 6.1 0.00 0.41 0.00 50 1015.5
20260509101004 70 359 4.3 4.3 0.00 0.41 0.00 50 1015.5
20260509100504 70 40 3.5 4.3 0.00 0.41 0.00 50 1015.6